Regional Weather Roundup
Issued by NWS Newport/Morehead, NC

Current Version | Previous Version | Graphics & Text | Print | Product List | Glossary On
Versions: 1 2 3 4 5 6 7 8 9 10 11 12 13 14 15 16 17 18 19 20 21 22 23 24 25 26 27 28 29 30 31 32 33 34 35 36 37 38 39 40 41 42 43 44 45 46 47 48 49 50
435 ASUS42 KMHX 290025 RWRMHX WEATHER ROUNDUP FOR EASTERN NORTH CAROLINA NATIONAL WEATHER SERVICE NEWPORT/MOREHEAD CITY NC 800 PM EDT FRI APR 28 2017 NOTE: "FAIR" INDICATES FEW OR NO CLOUDS BELOW 12,000 FEET WITH NO SIGNIFICANT WEATHER AND/OR OBSTRUCTIONS TO VISIBILITY NCZ015>017-031-032-045>047-102-103-290100- NORTH COAST CITY SKY/WX TMP DP RH WIND PRES REMARKS EDENTON PTCLDY 82 74 77 S10 30.07R ELIZABETH CITY CLEAR 80 75 84 S10 30.06S KITTY HAWK CLEAR 76 72 85 S3 30.08R MANTEO CLEAR 75 72 88 SW15 30.09R $$ NCZ045>047-081-094-103-104-290100- CENTRAL COAST CITY SKY/WX TMP DP RH WIND PRES REMARKS FRISCO CLEAR 75 72 90 SW15 30.13R FOG $$ NCZ095-097-098-100-101-290100- SOUTHERN COAST CITY SKY/WX TMP DP RH WIND PRES REMARKS BEAUFORT CLEAR 74 74 100 S10 30.13R FOG CEDAR ISLAND NOT AVBL JACKSONVILLE PTCLDY 77 75 93 S10 30.10R PINEY ISLAND CLEAR N/A N/A N/A S13 30.12R WILMINGTON CLOUDY 78 74 87 S13G22 30.11R $$ NCZ011>013-027>030-043-044-078>080-089-090>093-098-290100- COASTAL PLAIN CITY SKY/WX TMP DP RH WIND PRES REMARKS AHOSKIE N/A 74 70 87 CALM 30.05S CLINTON CLEAR 81 75 81 S6 30.08R ELIZABETHTOWN CLEAR 81 73 78 S7 30.08S GOLDSBORO CLEAR 82 77 82 S10 30.05R GREENVILLE CLEAR 82 72 69 S10 30.08R HAVELOCK NOT AVBL KENANSVILLE CLEAR 81 73 78 CALM 30.08S KINSTON CLEAR 82 72 69 S10G16 30.08R NEW BERN PTCLDY 77 74 90 S9 30.11R RICHLANDS CLEAR 79 73 82 S9 30.10R ROCKY MOUNT CLEAR 80 70 71 S5 30.05R WASHINGTON CLEAR 80 73 81 S7 30.08R WHITEVILLE CLEAR 79 74 85 S9 30.09R $$ AMZ130-135-150-152-154-156-158-170-250-252-270-ANZ085-086-088-633-658-670-290100- MARINE OBSERVATIONS STATION/POSITION TIME TEMP WIND PRES WAVE SWELL AIR SEA DIR/SP/G HT/PER HT/PER (UTC) (F) (DEG/KT/KT) (MB) (FT/S) (FT/S) CHESAPEAKE LIGHT NOT AVBL 64 E VA BEACH 2350 62 58 200/ 14/ 16 1019.3 4/ 8 3/ 8 DUCK 0000 77 57 180/ 12/ 14 1017.9 2 E DUCK 0000 62 N/A 3/ 8 2/11 OREGON INLET 0000 75 76 190/ 19/ 21 1019.2 13E OREGON INLT 2348 61 N/A 4/ 6 2/ 8 HATTERAS CG 0000 75 73 200/ 12/ 16 1019.9 DIAMOND BUOY 2350 77 76 210/ 16/ 19 1020.1 4/ 7 3/ 7 CAPE LOOKOUT 0000 74 190/ 8/ 11 1020.1 BEAUFORT LAB 0000 74 72 200/ 11/ 15 1019.4 30 SE NEW RVR IN 2308 74 210/ 10/ 14 1020.3 30 SE NEW RVR IN 2343 73 N/A 4/ 8 27 SE WRIGHTSVLE 0008 74 73 190/ 12/ 16 1020.2 5 SE WRIGHTSVLE 0008 73 71 190/ 8/ 12 1019.9 225 S CAPE HAT 2350 75 76 170/ 8/ 8 1023.4 4/ 8 3/ 8 41 SE CHARLESTON 0000 75 74 170/ 8/ 10 1020.0 $$

USA.gov is the U.S. government's official web portal to all federal, state and local government web resources and services.